Regional Weather Roundup
Issued by NWS Binghamton, NY

Home | Current Version | Previous Version | Text Only | Print | Product List | Glossary On
Versions: 1 2 3 4 5 6 7 8 9 10 11 12 13 14 15 16 17 18 19 20 21 22 23 24 25 26 27 28 29 30 31 32 33 34 35 36 37 38 39 40 41 42 43 44 45 46 47 48 49 50
000
ASUS41 KBGM 220810
RWRBGM
RWRBGM
BINGHAMTON REGIONAL WEATHER ROUNDUP
NATIONAL WEATHER SERVICE BINGHAMTON NY
400 AM EDT FRI AUG 22 2014

Note: "fair" indicates few or no clouds below 12,000 feet with no
significant weather and/or obstructions to visibility.

* = Station(s) that does not report precipitation, such as rain,
snow, etc, also no thunder or fog.

!NYZ009-015>018-022>025-036-037-044>046-055>057-062-220900
...CENTRAL NEW YORK...

CITY           SKY/WX    TMP DP  RH WIND       PRES   REMARKS
BINGHAMTON     FOG       60  60 100 NE5       30.02R VSB 1/4
CORTLAND       CLOUDY    64  64 100 CALM      30.01S FOG
DANSVILLE      CLEAR     63  61  93 SE6       29.99S
ELMIRA         FOG       64  64 100 W3        30.00R VSB 1/4
ITHACA         MOCLDY    63  63 100 CALM      30.01R FOG
HAMILTON       CLOUDY    64  63  94 SE3       30.00S
MONTICELLO     CLOUDY    63  63 100 E8        30.05S VSB 1/2
NORWICH        MOCLDY    63  63 100 SE3       30.01S
ONEONTA        MOCLDY    63  63 100 CALM      30.03S
PENN YAN       CLEAR     65  64  97 SW7       29.99S
ROME           CLOUDY    66  65  96 E6        29.99S
SIDNEY         CLOUDY    63  63 100 CALM      30.01S FOG
SYRACUSE       FOG       64  64 100 CALM      29.97R VSB 1/2
$$

!PAZ038>040-043-044-047-048-072-220900
...NORTHEAST PENNSYLVANIA...

CITY           SKY/WX    TMP DP  RH WIND       PRES   REMARKS
HAZLETON       CLOUDY    64  64 100 SE3       30.06R
SCRANTON       CLOUDY    69  65  86 CALM      30.00S
TOWANDA*       CLOUDY    64  64 100 CALM      30.00F
$$
&&
KEY
WCI = WIND CHILL INDEX
VSB = VISIBILITY
HX  = HEAT INDEX
$$



USA.gov is the U.S. government's official web portal to all federal, state and local government web resources and services.